Regional Weather Roundup
Issued by NWS Charleston, SC

Home | Current Version | Previous Version | Text Only | Print | Product List | Glossary On
Versions: 1 2 3 4 5 6 7 8 9 10 11 12 13 14 15 16 17 18 19 20 21 22 23 24 25 26 27 28 29 30 31 32 33 34 35 36 37 38 39 40 41 42 43 44 45 46 47 48 49 50
000
ASUS42 KCHS 210727
RWRCHS

REGIONAL WEATHER ROUNDUP
NATIONAL WEATHER SERVICE CHARLESTON SC
200 AM EST TUE NOV 21 2017

NOTE: "FAIR" INDICATES FEW OR NO CLOUDS BELOW 12,000 FEET WITH NO
SIGNIFICANT WEATHER AND/OR OBSTRUCTIONS TO VISIBILITY.

NOT ALL STATIONS ARE QUALITY CONTROLLED. USE DATA WITH CAUTION...
ESPECIALLY DEWPOINT OBSERVATIONS.

SCZ027-030-031-034>040-042>050-210800-
...SOUTHEAST SOUTH CAROLINA...

CITY           SKY/WX    TMP DP  RH WIND       PRES   REMARKS
N CHARLESTON   PTCLDY    43  41  93 NE5       30.19F
WATERFRONT PRK NOT AVBL
JOHNS ISLAND   FAIR      48  45  87 CALM      30.19S
PINOPOLIS        N/A     52  45  76 NE7       30.14F
MONCKS CORNER  FAIR      39  37  93 CALM      30.20F
SUMMERVILLE    FAIR      37  36  93 CALM      30.21S
BEAUFORT MCAS  PTCLDY    50  47  89 N5        30.19S
BEAUFORT ARPT  CLOUDY    52  46  82 NE6       30.18S
HILTON HEAD IS PTCLDY    55  50  82 NE6       30.18S
WALTERBORO     SUNNY     45  39  81 NE3       30.20S
ALLENDALE      FAIR      43  39  87 CALM      30.19F

...SOUTHERN MIDLANDS AND PEE DEE...

CITY           SKY/WX    TMP DP  RH WIND       PRES   REMARKS
GEORGETOWN     FAIR      37  36  93 CALM      30.22F
KINGSTREE      FAIR      32  32 100 CALM      30.23F
ORANGEBURG     CLEAR     38  36  92 CALM      30.22S
BARNWELL         N/A     39  37  93 CALM      30.21S
AIKEN          FAIR      34  32  93 E5        30.24F WCI  30
MANNING        FAIR      34  34 100 MISG      30.22F
COLUMBIA       CLEAR     37  34  89 CALM      30.22F
SUMTER         CLOUDY    33  30  89 CALM      30.21F
FLORENCE       CLOUDY    34  32  92 CALM      30.25S
MYRTLE BEACH   CLEAR     40  38  93 CALM      30.24F
N MYRTLE BEACH CLEAR     37  36  96 CALM      30.23F

$$

GAZ063-065-086>088-099>101-113>116-118-119-134>141-150-210800-
...SOUTHEAST GEORGIA...

CITY           SKY/WX    TMP DP  RH WIND       PRES   REMARKS
SAVANNAH ARPT  CLOUDY    53  47  79 NE5       30.18F
HUNTER AAF     MOCLDY    54  48  81 CALM      30.15S
FORT STEWART   CLOUDY    53  47  80 N5        30.15F
STATESBORO     CLOUDY    47  38  73 CALM      30.18F
SYLVANIA       PTSUNNY   48  42  80 E3        30.20S
CLAXTON        CLOUDY    49  46  89 NE3       30.18F

...CSRA...CENTRAL AND FAR SOUTHEAST GEORGIA...

CITY           SKY/WX    TMP DP  RH WIND       PRES   REMARKS
THOMSON        CLOUDY    40  36  87 CALM      30.25S
AUGUSTA-BUSH   PTCLDY    37  35  92 CALM      30.21F
AUGUSTA-DANIEL PTCLDY    47  36  65 E5        30.21F
SWAINSBORO     CLOUDY    50  39  66 E6        30.18F
VIDALIA        CLOUDY    52  46  82 NE5       30.16F
EASTMAN        PTSUNNY   52  40  64 E3        30.18F
HAZLEHURST     CLOUDY    54  43  65 E3        30.14F
ALMA           CLOUDY    56  50  80 NE5       30.14F
WAYCROSS       CLOUDY    55  52  90 NE3       30.13F
JESUP          CLOUDY    57  52  82 CALM      30.15F
BAXLEY         CLOUDY    52  50  93 NE5       30.14F
BRUNSWICK      MOCLDY    54  52  94 CALM      30.14F
SAINT SIMONS   MOCLDY    67  58  72 E9        30.13F

$$

SCZ027-028-034-036>038-045-046-048>050-GAZ119-141-210800-
...LAKE AND SUPPLEMENTAL COASTAL OBSERVATIONS...

STATION/POSITION TIME  TEMP    WIND        PRES    WAVE   SWELL
                       AIR SEA DIR/SP/G            HT/PER HT/PER/DIR
                 (UTC) (F)     (DEG/KT/KT) (MB)    (FT/S) (FT/S/D)
WINYAH BAY       0630   40     330/  3     1023.0F
LAKE MURRAY      0720   47      CALM  /  3 1022.7S
ACE BASIN NERRS  0645   48        CALM     1022.0S
FORT PULASKI     0700   57 61   40/ 10/ 12 1021.7
SAPELO ISLAND    0700   64      60/  3     1020.0

$$

ANZ835-935-AMZ111-154-330-350-352-354-370-450-454-472-210800-
...C-MAN AND BUOY OBSERVATIONS...

STATION/POSITION TIME  TEMP    WIND        PRES    WAVE   SWELL
                       AIR SEA DIR/SP/G            HT/PER HT/PER/DIR
                 (UTC) (F)     (DEG/KT/KT) (MB)    (FT/S) (FT/S/D)
BUOY 41004       0710   69 73  140/ 14/ 17 1021.3
BUOY 41008       0650   70 67  120/ 14/ 16 1020.4F   4/ 5   2/ 90/ 8
FOLLY BEACH CMAN 0700   53     360/  7/  8 1022.5F
CAPERS NEARSHORE 0708   58 61   50/ 10/ 16 1021.8F
FRIPP NEARSHORE  0708   56 61   30/ 12/ 23 1020.9F


STATION/POSITION TIME  TEMP    WIND        PRES    WAVE   SWELL
                       AIR SEA DIR/SP/G            HT/PER HT/PER/DIR
                 (UTC) (F)     (DEG/KT/KT) (MB)    (FT/S) (FT/S/D)
5E ST. MARYS GA  0700      67                N/A     4/ 5
FRYING PAN BUOY  0710   64 69   60/  4/  6 1023.0
BUOY 41025       0710   60 75  320/  8/ 12 1025.1
CAPE LOOKOUT NC  0700          350/  4/  5 1024.8F
BUOY 41002       0650   69 76  100/ 14/ 17 1023.0F   5/ 9   3/ 20/ 9
BUOY 41010       NOT AVBL
ST AUGUSTINE FL  0700   71 67  130/ 14/ 16 1019.3F


$$




USA.gov is the U.S. government's official web portal to all federal, state and local government web resources and services.